COSMOS 2251 DEB, 40808

Orbit data source: Space-Track

COSMOS 2251 DEB, 40808 is space debris in LEO originally from a launch on Wed, 16 Jun 1993 UTC launched from the Plesetsk Missile And Space Complex (PKMTR). The debris from Iridium 33, an American commercial communications satellite, has been tracked extensively since its accidental collision with the defunct Russian satellite Cosmos 2251 in 2009. This event, occurring at high speed in low Earth orbit (LEO), generated thousands of pieces of space debris, significantly increasing the risk of further collisions. The Iridium 33 debris cloud has impacted space traffic management and orbital debris mitigation strategies, making it a subject of ongoing study in space situational awareness.

Loading next visibility...
Identifier
40808, 1993-036BWM
Orbit
LEO
Country
Flag of CISCIS
Related business
Manufacturer
Unknown
Mission
Spacecraft
Bus & Motor
Unknown
Mass
Unknown
Launch date (UTC)
1993-06-16 (32 years ago)
Launch vehicle
Unknown
Launch site
Plesetsk Missile And Space Complex (PKMTR)
Object type
Payload
Rocket body
Debris
Shape & HBR
Unknown
Radar Cross Section
Small (<0.1 m²)

Expand to show TLE details & history
Last TLE update: 1 day ago

TLE from 1 day ago
0 COSMOS 2251 DEB
1 40808U 93036BWM 25258.17708935  .00010554  00000-0  19554-2 0  9994
2 40808  74.0438 316.1290 0012349   7.9999  23.1047 14.65329073623213
Epoch: 2025-09-15T04:15Z
TLE epoch observation values (Epoch: 2025-09-15T04:15:00.519Z)
Latitude
29.89302°
Longitude
-92.59989°
Altitude
671.456 km
Speed
7.528 km/s
True Right ascension
21h 42m 09s
True Declination
29° 44' 34"
Sunlit
Object was in full shadow at epoch
Visualization orbit readout
Latitude
Unknown
Longitude
Unknown
Altitude
Unknown
Speed
Unknown
Apparent Right ascension
Unknown
Apparent Declination
Unknown
Sunlit
N/A
Visualization observer readout
Local Sidereal Time
01:49:50
Azimuth
Unknown
Elevation
Unknown
Doppler factor
Unknown
Orbital elements
Apogee altitude
682.318 km
Perigee altitude
664.902 km
Semi-major axis
7,051.747 km
Eccentricity
0.00123
Inclination
74.0438°
RAAN
316.129°
Arg. of periapsis
7.9999°
True anomaly
23.16031°
Mean anomaly
23.1047°
Eccentric anomaly
23.1325°
Mean motion
3.6652 °/min
Orbital period
98.22 mins
BSTAR
0.0019554
Loading maneuver chart data...
Computing Atmospheric mass density...

Documentation

Showing up to 5 results
|